Location: *
(51.4660°N, 0.3360°W)
Time: 02:30:05
(UTC+00:00)

CZ-2C R/B - Pass Details

Date: 19 September 2019
Orbit: 639 x 705 km, 98.4° (Epoch: 22 October)

Event Time Altitude Azimuth Distance (km) Brightness Sun altitude
Rises 18:54:18 0° 21° (NNE) 2,985 7.0 -8.1°
Reaches altitude 10° 18:56:44 10° 32° (NNE) 2,061 6.1 -8.4°
Maximum altitude 19:00:47 33° 96° (E) 1,092 4.3 -9.1°
Drops below altitude 10° 19:04:46 10° 161° (SSE) 2,030 5.9 -9.7°
Sets 19:07:08 0° 171° (S) 2,933 6.8 -10.0°
